When you browse on this site, cookies collect data to enhance your experience and personalize the content and advertising you see.
Visit our Privacy Policy to learn more. By continuing to use the site, you agree to this use of cookies and data.
  • In Czech Republic
  • List of Countries
  • For 7 days
  • Water Temperature
  • Satellite Maps
  • Weather Map
  • Weather Widgets
  • user-avatar
    Login

    Hourly Weather Leschihino

    Today, 19 February, Tuesday

    Time Temperature Precipitation Wind Pressure Humidity
    00:00 -9°C° 0 mm 2 mps 750 mmHg 90%
    01:00 -9°C° 0 mm 2 mps 750 mmHg 89%
    02:00 -9°C° 0 mm 2 mps 750 mmHg 90%
    03:00 -10°C° 0 mm 3 mps 749 mmHg 89%
    04:00 -10°C° 0 mm 4 mps 748 mmHg 87%
    05:00 -11°C° 0 mm 5 mps 748 mmHg 86%
    06:00 -10°C° 0 mm 5 mps 747 mmHg 83%
    07:00 -10°C° 0 mm 5 mps 747 mmHg 81%
    08:00 -9°C° 0 mm 6 mps 746 mmHg 78%
    09:00 -8°C° 0 mm 6 mps 746 mmHg 76%
    10:00 -6°C° 0 mm 6 mps 745 mmHg 74%
    11:00 -4°C° 0 mm 6 mps 745 mmHg 71%
    12:00 -4°C° 0 mm 6 mps 744 mmHg 73%
    13:00 -3°C° 0 mm 6 mps 744 mmHg 74%
    14:00 -2°C° 0 mm 6 mps 743 mmHg 76%
    15:00 -2°C° 0 mm 5 mps 743 mmHg 77%
    16:00 -2°C° 0 mm 5 mps 742 mmHg 78%
    17:00 -4°C° 0 mm 5 mps 742 mmHg 79%
    18:00 -4°C° 0 mm 5 mps 741 mmHg 81%
    19:00 -5°C° 0 mm 5 mps 741 mmHg 82%
    20:00 -5°C° 0 mm 6 mps 740 mmHg 84%
    21:00 -4°C° 0 mm 6 mps 739 mmHg 86%
    22:00 -4°C° 0 mm 6 mps 739 mmHg 87%
    23:00 -3°C° 0 mm 6 mps 738 mmHg 89%

    Tomorrow, 20 February, Wednesday

    Time Temperature Precipitation Wind Pressure Humidity
    00:00 -3°C° 0 mm 6 mps 737 mmHg 89%
    01:00 -3°C° 0 mm 6 mps 737 mmHg 88%
    02:00 -2°C° 0 mm 6 mps 736 mmHg 88%
    03:00 -2°C° 0 mm 6 mps 735 mmHg 89%
    04:00 -2°C° 0 mm 6 mps 735 mmHg 90%
    05:00 -1°C° 0 mm 5 mps 734 mmHg 90%
    06:00 0°C° 0.1 mm 5 mps 734 mmHg 91%
    07:00 0°C° 0.1 mm 5 mps 734 mmHg 91%
    08:00 0°C° 0.1 mm 5 mps 734 mmHg 92%
    09:00 0°C° 0 mm 5 mps 734 mmHg 92%
    10:00 0°C° 0 mm 5 mps 734 mmHg 93%
    11:00 0°C° 0 mm 5 mps 733 mmHg 94%
    12:00 0°C° 0 mm 5 mps 733 mmHg 94%
    13:00 0°C° 0 mm 5 mps 733 mmHg 93%
    14:00 0°C° 0 mm 5 mps 733 mmHg 93%
    15:00 0°C° 0 mm 5 mps 733 mmHg 92%
    16:00 0°C° 0 mm 4 mps 733 mmHg 91%
    17:00 -1°C° 0 mm 4 mps 733 mmHg 90%
    18:00 -1°C° 0 mm 4 mps 732 mmHg 90%
    19:00 -1°C° 0 mm 5 mps 732 mmHg 90%
    20:00 -1°C° 0 mm 5 mps 732 mmHg 90%
    21:00 -1°C° 0.1 mm 4 mps 732 mmHg 90%
    22:00 -1°C° 0.1 mm 4 mps 731 mmHg 90%
    23:00 -1°C° 0.1 mm 4 mps 731 mmHg 91%

    Day after tomorrow, 21 February, Thursday

    Time Temperature Precipitation Wind Pressure Humidity
    00:00 -2°C° 0 mm 4 mps 731 mmHg 90%
    01:00 -2°C° 0 mm 4 mps 731 mmHg 90%
    02:00 -3°C° 0 mm 4 mps 731 mmHg 90%
    03:00 -3°C° 0.2 mm 4 mps 731 mmHg 90%
    04:00 -3°C° 0.2 mm 4 mps 731 mmHg 91%
    05:00 -3°C° 0.2 mm 4 mps 732 mmHg 91%
    06:00 -5°C° 0.4 mm 5 mps 732 mmHg 89%
    07:00 -5°C° 0.4 mm 5 mps 732 mmHg 88%
    08:00 -6°C° 0.4 mm 6 mps 733 mmHg 86%
    09:00 -6°C° 0.3 mm 6 mps 733 mmHg 86%
    10:00 -6°C° 0.3 mm 6 mps 734 mmHg 85%
    11:00 -6°C° 0.3 mm 6 mps 734 mmHg 85%
    12:00 -6°C° 0.2 mm 6 mps 735 mmHg 85%
    13:00 -6°C° 0.2 mm 6 mps 736 mmHg 85%
    14:00 -7°C° 0.2 mm 7 mps 736 mmHg 85%
    15:00 -7°C° 0.2 mm 7 mps 737 mmHg 84%
    16:00 -8°C° 0.2 mm 7 mps 738 mmHg 83%
    17:00 -9°C° 0.2 mm 7 mps 739 mmHg 82%
    18:00 -11°C° 0.1 mm 7 mps 740 mmHg 82%
    19:00 -12°C° 0.1 mm 7 mps 741 mmHg 82%
    20:00 -12°C° 0.1 mm 7 mps 742 mmHg 81%
    21:00 -13°C° 0 mm 7 mps 743 mmHg 80%
    22:00 -13°C° 0 mm 7 mps 743 mmHg 79%
    23:00 -14°C° 0 mm 7 mps 744 mmHg 78%

    22 February, Friday

    Time Temperature Precipitation Wind Pressure Humidity
    00:00 -14°C° 0 mm 7 mps 745 mmHg 78%
    01:00 -15°C° 0 mm 7 mps 745 mmHg 78%
    02:00 -15°C° 0 mm 7 mps 746 mmHg 78%
    03:00 -15°C° 0 mm 7 mps 747 mmHg 78%
    04:00 -17°C° 0 mm 7 mps 747 mmHg 78%
    05:00 -17°C° 0 mm 7 mps 748 mmHg 79%
    06:00 -17°C° 0 mm 7 mps 748 mmHg 78%
    07:00 -17°C° 0 mm 7 mps 749 mmHg 77%
    08:00 -16°C° 0 mm 6 mps 749 mmHg 76%
    09:00 -15°C° 0 mm 7 mps 749 mmHg 74%
    10:00 -14°C° 0 mm 7 mps 749 mmHg 72%
    11:00 -14°C° 0 mm 7 mps 750 mmHg 71%
    12:00 -13°C° 0 mm 7 mps 750 mmHg 71%
    13:00 -13°C° 0 mm 7 mps 750 mmHg 71%
    14:00 -13°C° 0 mm 7 mps 750 mmHg 71%
    15:00 -13°C° 0 mm 7 mps 750 mmHg 73%
    16:00 -14°C° 0 mm 7 mps 751 mmHg 74%
    17:00 -15°C° 0 mm 6 mps 751 mmHg 76%
    18:00 -15°C° 0 mm 6 mps 752 mmHg 77%
    19:00 -15°C° 0 mm 6 mps 752 mmHg 77%
    20:00 -17°C° 0 mm 7 mps 753 mmHg 78%
    21:00 -16°C° 0 mm 6 mps 753 mmHg 79%
    22:00 -16°C° 0 mm 6 mps 754 mmHg 80%
    23:00 -17°C° 0 mm 6 mps 754 mmHg 81%

    23 February, Saturday

    Time Temperature Precipitation Wind Pressure Humidity
    00:00 -17°C° 0 mm 6 mps 755 mmHg 81%
    01:00 -17°C° 0 mm 5 mps 755 mmHg 82%
    02:00 -17°C° 0 mm 5 mps 755 mmHg 83%
    03:00 -17°C° 0 mm 5 mps 756 mmHg 84%
    04:00 -17°C° 0 mm 5 mps 756 mmHg 85%
    05:00 -17°C° 0 mm 5 mps 756 mmHg 85%
    06:00 -17°C° 0 mm 5 mps 756 mmHg 86%
    07:00 -16°C° 0 mm 4 mps 757 mmHg 87%
    08:00 -17°C° 0 mm 4 mps 757 mmHg 87%
    09:00 -16°C° 0 mm 4 mps 757 mmHg 86%
    10:00 -15°C° 0 mm 4 mps 757 mmHg 84%
    11:00 -15°C° 0 mm 4 mps 757 mmHg 82%
    12:00 -14°C° 0 mm 4 mps 757 mmHg 80%
    13:00 -12°C° 0 mm 4 mps 757 mmHg 78%
    14:00 -12°C° 0 mm 4 mps 757 mmHg 76%
    15:00 -12°C° 0 mm 3 mps 757 mmHg 79%
    16:00 -13°C° 0 mm 3 mps 758 mmHg 82%
    17:00 -13°C° 0 mm 2 mps 758 mmHg 86%
    18:00 -13°C° 0 mm 2 mps 758 mmHg 87%
    19:00 -13°C° 0 mm 2 mps 759 mmHg 88%
    20:00 -13°C° 0 mm 2 mps 759 mmHg 90%
    21:00 -13°C° 0 mm 2 mps 759 mmHg 90%
    22:00 -13°C° 0 mm 2 mps 759 mmHg 90%
    23:00 -11°C° 0 mm 1 mps 760 mmHg 90%

    24 February, Sunday

    Time Temperature Precipitation Wind Pressure Humidity
    00:00 -11°C° 0 mm 1 mps 760 mmHg 89%
    01:00 -11°C° 0 mm 1 mps 760 mmHg 88%
    02:00 -11°C° 0 mm 1 mps 760 mmHg 87%
    03:00 -11°C° 0 mm 1 mps 760 mmHg 86%
    04:00 -13°C° 0 mm 2 mps 759 mmHg 85%
    05:00 -13°C° 0 mm 2 mps 759 mmHg 84%
    06:00 -13°C° 0 mm 2 mps 759 mmHg 84%
    07:00 -12°C° 0 mm 2 mps 760 mmHg 84%
    08:00 -12°C° 0 mm 2 mps 760 mmHg 84%
    09:00 -10°C° 0 mm 2 mps 760 mmHg 84%
    10:00 -8°C° 0 mm 2 mps 760 mmHg 85%
    11:00 -7°C° 0 mm 2 mps 760 mmHg 85%
    12:00 -6°C° 0 mm 2 mps 759 mmHg 85%
    13:00 -6°C° 0 mm 3 mps 759 mmHg 86%
    14:00 -6°C° 0 mm 3 mps 759 mmHg 86%
    15:00 -6°C° 0 mm 3 mps 758 mmHg 88%
    16:00 -5°C° 0 mm 2 mps 758 mmHg 90%
    17:00 -5°C° 0 mm 2 mps 758 mmHg 92%
    18:00 -5°C° 0 mm 2 mps 757 mmHg 92%
    19:00 -6°C° 0 mm 3 mps 757 mmHg 93%
    20:00 -5°C° 0 mm 3 mps 757 mmHg 93%
    21:00 -5°C° 0 mm 3 mps 756 mmHg 93%
    22:00 -5°C° 0 mm 4 mps 756 mmHg 93%
    23:00 -5°C° 0 mm 4 mps 756 mmHg 93%
    Show more